STARLINK-2537, 48301

Orbit data source: Space-Track

STARLINK-2537, 48301 is a payload satellite owned by SpaceX/Seattle (US) in LEO that was launched on Thu, 29 Apr 2021 UTC via an FALCON 9 launch vehicle from the Air Force Eastern Test Range (AFETR). Payload-class satellites include a variety of spacecraft equipped with specific instruments for various scientific and technological missions. These include communications satellites like Starlink; space stations such as the ISS; scientific satellites like the Hubble; Earth observation satellites from companies like Planet Labs, Umbra, and HawkEye 360; GPS; miniature CubeSats for education and research; and military/defense satellites.

Loading next visibility...
Identifier
48301, 2021-036AB
Orbit
LEO
Country
Flag of USUS
Related business
Manufacturer
SpaceX/Seattle
Mission
Operational Commercial Communications
Bus & Motor
STARLINK, Unknown motor
Mass
260 kg wet, ~248 kg dry
Launch date (UTC)
2021-04-29 (5 years ago)
Launch vehicle
FALCON 9
Launch site
Air Force Eastern Test Range (AFETR)
Object type
Payload
Rocket body
Debris
Shape & HBR
Box + 1 Pan, 10.1 m
Radar Cross Section
13.562 m², Large (>1 m²)

Expand to show TLE details & history
Last TLE update: 16 hours ago

TLE from 16 hours ago
0 STARLINK-2537
1 48301U 21036AB  26035.81853514 -.00000176  00000-0  70624-5 0  9998
2 48301  53.0552 239.1792 0001201  95.8844 264.2282 15.06401685263219
Epoch: 2026-02-04T19:38Z
TLE epoch observation values (Epoch: 2026-02-04T19:38:41.436Z)
Latitude
0.00001°
Longitude
169.5269°
Altitude
548.169 km
Speed
7.589 km/s
True Right ascension
15h 56m 43s
True Declination
0° 00' 00"
Sunlit
Object was in daylight at epoch
Visualization orbit readout
Latitude
Unknown
Longitude
Unknown
Altitude
Unknown
Speed
Unknown
Apparent Right ascension
Unknown
Apparent Declination
Unknown
Sunlit
N/A
Visualization observer readout
Local Sidereal Time
13:34:29
Azimuth
Unknown
Elevation
Unknown
Doppler factor
Unknown
Orbital elements
Apogee altitude
548.309 km
Perigee altitude
546.645 km
Semi-major axis
6,925.614 km
Eccentricity
0.00012
Inclination
53.0552°
RAAN
239.1792°
Arg. of periapsis
95.8844°
True anomaly
264.21451°
Mean anomaly
264.2282°
Eccentric anomaly
264.22135°
Mean motion
3.76579 °/min
Orbital period
95.6 mins
BSTAR
0.0000070624
Loading maneuver chart data...
Computing Atmospheric mass density...
Loading historical data...
Loading historical data...
Loading historical data...
Loading historical data...
Loading historical data...
Loading historical data...
Loading historical data...

Documentation

Showing up to 5 results
|